This is the latest recevied weather packets stored in our database for station/object KC5DAQ-22. If no packets are shown the sender has not sent any weather packets the latest 1 day(s).
| Time | Temp. | Humidity | Pressure | Rain* | Wind** | Luminosity | Snow |
|---|---|---|---|---|---|---|---|
| 1778036301 | 25.56° C | 87% | 1006.9 hPa | 0 mm | 3.58 m/s, 152° | 0 W/m² | - |
| 1778036242 | 25.56° C | 87% | 1006.9 hPa | 0 mm | 4.02 m/s, 155° | 0 W/m² | - |
| 1778036183 | 25.56° C | 87% | 1006.8 hPa | 0 mm | 3.13 m/s, 189° | 0 W/m² | - |
| 1778036121 | 25.56° C | 87% | 1006.9 hPa | 0 mm | 2.24 m/s, 140° | 0 W/m² | - |
| 1778036061 | 25.56° C | 87% | 1006.8 hPa | 0 mm | 2.24 m/s, 154° | 0 W/m² | - |
| 1778036002 | 25.56° C | 87% | 1006.9 hPa | 0 mm | 2.24 m/s, 220° | 0 W/m² | - |
| 1778035942 | 25.56° C | 87% | 1006.8 hPa | 0 mm | 1.34 m/s, 182° | 0 W/m² | - |
| 1778035881 | 25.56° C | 87% | 1006.9 hPa | 0 mm | 2.68 m/s, 159° | 0 W/m² | - |
| 1778035821 | 25.56° C | 87% | 1006.8 hPa | 0 mm | 3.13 m/s, 123° | 0 W/m² | - |
| 1778035763 | 25.56° C | 87% | 1006.7 hPa | 0 mm | 2.68 m/s, 75° | 0 W/m² | - |
| 1778035702 | 25.56° C | 87% | 1006.7 hPa | 0 mm | 2.68 m/s, 195° | 0 W/m² | - |
| 1778035641 | 25.56° C | 87% | 1006.6 hPa | 0 mm | 2.68 m/s, 209° | 0 W/m² | - |
| 1778035582 | 25.56° C | 87% | 1006.6 hPa | 0 mm | 2.68 m/s, 195° | 0 W/m² | - |
| 1778035521 | 25.56° C | 87% | 1006.6 hPa | 0 mm | 3.13 m/s, 114° | 0 W/m² | - |
| 1778035463 | 25.56° C | 87% | 1006.6 hPa | 0 mm | 2.68 m/s, 166° | 0 W/m² | - |
| 1778035401 | 25.56° C | 87% | 1006.5 hPa | 0 mm | 3.13 m/s, 164° | 0 W/m² | - |
| 1778035342 | 25.56° C | 87% | 1006.5 hPa | 0 mm | 3.13 m/s, 154° | 0 W/m² | - |
| 1778035280 | 26.11° C | 87% | 1006.5 hPa | 0 mm | 2.68 m/s, 180° | 0 W/m² | - |
| 1778035221 | 26.11° C | 87% | 1006.5 hPa | 0 mm | 2.24 m/s, 89° | 0 W/m² | - |
| 1778035163 | 26.11° C | 87% | 1006.5 hPa | 0 mm | 2.68 m/s, 161° | 0 W/m² | - |
| 1778035101 | 26.11° C | 87% | 1006.4 hPa | 0 mm | 2.68 m/s, 196° | 0 W/m² | - |
| 1778035042 | 26.11° C | 87% | 1006.4 hPa | 0 mm | 2.68 m/s, 144° | 0 W/m² | - |
| 1778034982 | 26.11° C | 87% | 1006.4 hPa | 0 mm | 2.68 m/s, 154° | 0 W/m² | - |
| 1778034922 | 26.11° C | 87% | 1006.5 hPa | 0 mm | 2.68 m/s, 135° | 0 W/m² | - |
| 1778034861 | 26.11° C | 86% | 1006.4 hPa | 0 mm | 2.68 m/s, 197° | 0 W/m² | - |
* Rain latest hour (hover to see other rain measurements)
** Current wind speed in m/s (hover to see current wind gust speed)